Previsão horária em Allaire

Hoje, 25 Janeiro, Segunda-feira

Tempo Temperatura Precipitação Vento Pressão Humidade
00:00 0°C° 0 mm 5 m/s 749 mmHg 78%
01:00 0°C° 0 mm 5 m/s 749 mmHg 80%
02:00 0°C° 0 mm 5 m/s 749 mmHg 81%
03:00 0°C° 0 mm 5 m/s 750 mmHg 82%
04:00 0°C° 0 mm 4 m/s 750 mmHg 84%
05:00 -1°C° 0 mm 4 m/s 750 mmHg 87%
06:00 -1°C° 0 mm 4 m/s 751 mmHg 89%
07:00 0°C° 0 mm 3 m/s 751 mmHg 88%
08:00 0°C° 0 mm 3 m/s 752 mmHg 88%
09:00 0°C° 0 mm 3 m/s 753 mmHg 87%
10:00 +2°C° 0 mm 3 m/s 754 mmHg 80%
11:00 +3°C° 0 mm 3 m/s 754 mmHg 74%
12:00 +5°C° 0 mm 4 m/s 755 mmHg 67%
13:00 +5°C° 0 mm 3 m/s 756 mmHg 65%
14:00 +5°C° 0 mm 3 m/s 756 mmHg 64%
15:00 +5°C° 0 mm 3 m/s 756 mmHg 62%
16:00 +5°C° 0 mm 2 m/s 757 mmHg 67%
17:00 +3°C° 0 mm 2 m/s 758 mmHg 71%
18:00 +3°C° 0 mm 1 m/s 758 mmHg 76%
19:00 +2°C° 0 mm 1 m/s 759 mmHg 76%
20:00 +2°C° 0 mm 1 m/s 759 mmHg 77%
21:00 0°C° 0 mm 0 m/s 760 mmHg 78%
22:00 +1°C° 0 mm 1 m/s 761 mmHg 77%
23:00 +1°C° 0 mm 1 m/s 761 mmHg 76%

Amanhã, 26 Janeiro, Terça-feira

Tempo Temperatura Precipitação Vento Pressão Humidade
00:00 +1°C° 0 mm 1 m/s 761 mmHg 75%
01:00 +1°C° 0 mm 1 m/s 761 mmHg 75%
02:00 -1°C° 0 mm 2 m/s 762 mmHg 74%
03:00 -1°C° 0 mm 2 m/s 762 mmHg 74%
04:00 -1°C° 0 mm 2 m/s 762 mmHg 76%
05:00 -1°C° 0 mm 2 m/s 762 mmHg 78%
06:00 -1°C° 0 mm 3 m/s 762 mmHg 81%
07:00 0°C° 0 mm 3 m/s 762 mmHg 79%
08:00 0°C° 0 mm 4 m/s 762 mmHg 78%
09:00 0°C° 0 mm 4 m/s 762 mmHg 77%
10:00 +2°C° 0 mm 5 m/s 762 mmHg 75%
11:00 +3°C° 0 mm 5 m/s 762 mmHg 73%
12:00 +4°C° 0 mm 6 m/s 763 mmHg 70%
13:00 +4°C° 0 mm 6 m/s 762 mmHg 72%
14:00 +5°C° 0 mm 5 m/s 762 mmHg 73%
15:00 +5°C° 0 mm 5 m/s 761 mmHg 74%
16:00 +5°C° 0.1 mm 5 m/s 761 mmHg 77%
17:00 +3°C° 0.1 mm 5 m/s 761 mmHg 79%
18:00 +3°C° 0.1 mm 5 m/s 761 mmHg 82%
19:00 +3°C° 0 mm 5 m/s 761 mmHg 81%
20:00 +3°C° 0 mm 5 m/s 761 mmHg 80%
21:00 +3°C° 0 mm 5 m/s 761 mmHg 80%
22:00 +3°C° 0 mm 5 m/s 760 mmHg 83%
23:00 +3°C° 0 mm 5 m/s 760 mmHg 86%

Depois de amanhã, 27 Janeiro, Quarta-feira

Tempo Temperatura Precipitação Vento Pressão Humidade
00:00 +5°C° 0 mm 5 m/s 760 mmHg 89%
01:00 +5°C° 0 mm 4 m/s 760 mmHg 91%
02:00 +6°C° 0 mm 4 m/s 759 mmHg 93%
03:00 +7°C° 0 mm 4 m/s 759 mmHg 96%
04:00 +7°C° 0 mm 4 m/s 759 mmHg 97%
05:00 +9°C° 0 mm 3 m/s 759 mmHg 98%
06:00 +9°C° 0 mm 3 m/s 759 mmHg 98%
07:00 +9°C° 0 mm 3 m/s 759 mmHg 98%
08:00 +10°C° 0 mm 2 m/s 759 mmHg 98%
09:00 +10°C° 0 mm 2 m/s 759 mmHg 98%
10:00 +10°C° 0.2 mm 3 m/s 759 mmHg 98%
11:00 +10°C° 0.2 mm 3 m/s 759 mmHg 98%
12:00 +11°C° 0.2 mm 3 m/s 759 mmHg 98%
13:00 +11°C° 0.9 mm 4 m/s 759 mmHg 98%
14:00 +10°C° 0.9 mm 5 m/s 758 mmHg 97%
15:00 +12°C° 0.9 mm 5 m/s 758 mmHg 97%
16:00 +12°C° 0 mm 5 m/s 758 mmHg 96%
17:00 +12°C° 0 mm 5 m/s 758 mmHg 96%
18:00 +12°C° 0 mm 5 m/s 758 mmHg 96%
19:00 +12°C° 0 mm 5 m/s 758 mmHg 96%
20:00 +11°C° 0 mm 6 m/s 757 mmHg 95%
21:00 +11°C° 0 mm 6 m/s 757 mmHg 95%
22:00 +11°C° 0 mm 6 m/s 757 mmHg 94%
23:00 +11°C° 0 mm 7 m/s 757 mmHg 93%

28 Janeiro, Quinta-feira

Tempo Temperatura Precipitação Vento Pressão Humidade
00:00 +11°C° 0 mm 7 m/s 757 mmHg 92%
01:00 +11°C° 0.4 mm 7 m/s 756 mmHg 93%
02:00 +11°C° 0.4 mm 8 m/s 756 mmHg 94%
03:00 +11°C° 0.4 mm 8 m/s 756 mmHg 94%
04:00 +11°C° 0 mm 8 m/s 756 mmHg 94%
05:00 +11°C° 0 mm 8 m/s 756 mmHg 93%
06:00 +11°C° 0 mm 7 m/s 755 mmHg 92%
07:00 +11°C° 0 mm 7 m/s 756 mmHg 92%
08:00 +11°C° 0 mm 6 m/s 756 mmHg 92%
09:00 +11°C° 0 mm 6 m/s 756 mmHg 92%
10:00 +11°C° 0 mm 6 m/s 757 mmHg 90%
11:00 +13°C° 0 mm 6 m/s 757 mmHg 89%
12:00 +12°C° 0 mm 7 m/s 757 mmHg 87%
13:00 +12°C° 0.1 mm 7 m/s 757 mmHg 86%
14:00 +12°C° 0.1 mm 7 m/s 756 mmHg 86%
15:00 +12°C° 0.1 mm 7 m/s 756 mmHg 86%
16:00 +12°C° 0 mm 7 m/s 756 mmHg 89%
17:00 +11°C° 0 mm 7 m/s 756 mmHg 92%
18:00 +11°C° 0 mm 7 m/s 755 mmHg 94%
19:00 +11°C° 0.6 mm 8 m/s 755 mmHg 94%
20:00 +11°C° 0.6 mm 9 m/s 755 mmHg 94%
21:00 +11°C° 0.6 mm 9 m/s 754 mmHg 93%
22:00 +11°C° 0.5 mm 9 m/s 754 mmHg 94%
23:00 +11°C° 0.5 mm 9 m/s 754 mmHg 94%

29 Janeiro, Sexta-feira

Tempo Temperatura Precipitação Vento Pressão Humidade
00:00 +11°C° 0.5 mm 9 m/s 754 mmHg 94%
01:00 +11°C° 0.2 mm 9 m/s 753 mmHg 93%
02:00 +11°C° 0.2 mm 8 m/s 753 mmHg 93%
03:00 +11°C° 0.2 mm 8 m/s 753 mmHg 92%
04:00 +10°C° 0.3 mm 7 m/s 753 mmHg 92%
05:00 +10°C° 0.3 mm 6 m/s 753 mmHg 92%
06:00 +9°C° 0.3 mm 5 m/s 753 mmHg 91%
07:00 +9°C° 0 mm 5 m/s 753 mmHg 91%
08:00 +9°C° 0 mm 5 m/s 754 mmHg 91%
09:00 +10°C° 0 mm 4 m/s 754 mmHg 91%
10:00 +10°C° 0 mm 4 m/s 754 mmHg 87%
11:00 +10°C° 0 mm 5 m/s 754 mmHg 84%
12:00 +12°C° 0 mm 5 m/s 754 mmHg 80%
13:00 +12°C° 0 mm 5 m/s 754 mmHg 80%
14:00 +10°C° 0 mm 5 m/s 754 mmHg 81%
15:00 +10°C° 0 mm 5 m/s 754 mmHg 81%
16:00 +9°C° 0 mm 5 m/s 754 mmHg 85%
17:00 +8°C° 0 mm 5 m/s 754 mmHg 89%
18:00 +8°C° 0 mm 5 m/s 755 mmHg 92%
19:00 +7°C° 0 mm 4 m/s 755 mmHg 93%
20:00 +7°C° 0 mm 4 m/s 755 mmHg 93%
21:00 +6°C° 0 mm 4 m/s 756 mmHg 94%
22:00 +6°C° 0 mm 4 m/s 756 mmHg 94%
23:00 +7°C° 0 mm 3 m/s 756 mmHg 95%

30 Janeiro, Sábado

Tempo Temperatura Precipitação Vento Pressão Humidade
00:00 +7°C° 0 mm 3 m/s 756 mmHg 96%
01:00 +7°C° 0 mm 3 m/s 756 mmHg 96%
02:00 +5°C° 0 mm 3 m/s 756 mmHg 95%
03:00 +5°C° 0 mm 3 m/s 756 mmHg 95%
04:00 +6°C° 0 mm 2 m/s 756 mmHg 94%
05:00 +6°C° 0 mm 2 m/s 755 mmHg 93%
06:00 +6°C° 0 mm 1 m/s 755 mmHg 93%
07:00 +7°C° 0 mm 1 m/s 755 mmHg 91%
08:00 +7°C° 0 mm 1 m/s 755 mmHg 89%
09:00 +7°C° 0 mm 1 m/s 756 mmHg 87%
10:00 +8°C° 0 mm 1 m/s 755 mmHg 82%
11:00 +9°C° 0 mm 1 m/s 755 mmHg 77%
12:00 +11°C° 0 mm 1 m/s 755 mmHg 72%
13:00 +11°C° 0 mm 1 m/s 755 mmHg 73%
14:00 +11°C° 0 mm 1 m/s 755 mmHg 74%
15:00 +11°C° 0 mm 1 m/s 755 mmHg 75%
16:00 +10°C° 0 mm 1 m/s 755 mmHg 80%
17:00 +9°C° 0 mm 1 m/s 755 mmHg 85%
18:00 +8°C° 0 mm 1 m/s 755 mmHg 91%
19:00 +8°C° 0 mm 1 m/s 755 mmHg 91%
20:00 +6°C° 0 mm 2 m/s 755 mmHg 92%
21:00 +6°C° 0 mm 2 m/s 755 mmHg 93%
22:00 +7°C° 0 mm 3 m/s 755 mmHg 93%
23:00 +6°C° 0 mm 4 m/s 754 mmHg 93%
Mostrar mais

Necessitamos do seu Consentimento

A Meteoprog e os seus Fornecedores de Serviços podem armazenar e aceder a dados pessoais como cookies, identificadores do dispositivo ou outras tecnologias semelhantes existentes no seu dispositivo e processar estes dados para personalizar conteúdos e anúncios, assim como funcionalidades nas redes sociais e análise de tráfego.

  • Armazenar e/ou aceder a informações no seu dispositivo

    Os cookies, identificadores do dispositivo ou outras informações podem ser armazenados ou acedidos no seu dispositivo, para os fins acima indicados.

  • Anúncios e conteúdos personalizados, medição de anúncios e conteúdos, dados sobre o público-alvo e desenvolvimento de produtos

    Os anúncios e os conteúdos podem ser personalizados com base num perfil. Podem ser adicionados dados adicionais para uma maior personalização dos anúncios e dos conteúdos. A eficácia dos anúncios e dos conteúdos pode ser medida. Podem ser obtidas informações sobre o público que visualizou os anúncios e os conteúdos. Estes dados podem ser usados para desenvolver ou melhorar sistemas, softwares ou a experiência do utilizador.

Ao clicar em "Eu concordo”, permitirá o uso de cookies, identificadores do dispositivo e web beacons mencionados ou outras tecnologias semelhantes. As configurações do navegador do seu dispositivo podem ser alteradas.

Para certos fins, podem ser invocados interesses legítimos ao invés de consentimento. Pode ler mais informação sobre este assunto na nossa Política de Privacidade e Cookies.